Regional Weather Roundup
Issued by NWS

Home | Current Version | Previous Version | Graphics & Text | Print | Product List | Glossary On
Versions: 1 2 3 4 5 6 7 8 9 10 11 12 13 14 15 16 17 18 19 20 21 22 23 24 25 26
000
ASUS45 KTFX 221110
RWRMT
MONTANA REGIONAL WEATHER ROUNDUP
NATIONAL WEATHER SERVICE GREAT FALLS MT
500 AM MDT TUE AUG 22 2017

NOTE: "FAIR" INDICATES FEW OR NO CLOUDS BELOW 12000 FEET WITH NO
SIGNIFICANT WEATHER AND/OR OBSTRUCTIONS TO VISIBILITY.

MTZ001>007-043-221200-
WEST OF THE DIVIDE

CITY           SKY/WX    TMP DP  RH WIND       PRES   REMARKS
KALISPELL      CLEAR     45  42  89 CALM      30.14R
MISSOULA       PTCLDY    52  39  61 CALM      30.17S HAZE
BUTTE          CLOUDY    45  32  60 S3        30.28S
MULLAN PASS    CLEAR     61  33  35 SE5       30.26F
ANACONDA         N/A     48  34  57 S5        30.24S
DEER LODGE       N/A     45  36  70 CALM      30.25S
EUREKA           N/A     48  39  71 MISG      30.15R
HAMILTON         N/A     55  39  54 S8        30.17S
LIBBY            N/A     48  41  76 CALM      30.12S
PLAINS           N/A     48  39  71 CALM      30.13S
RONAN            N/A     46  40  79 CALM      30.17R
$$

MTZ008-052>055-221200-
SOUTHWEST MONTANA

CITY           SKY/WX    TMP DP  RH WIND       PRES   REMARKS
BOZEMAN        CLEAR     51  36  56 CALM      30.22S
DILLON         CLOUDY    49  32  52 S12       30.24S
W YELLOWSTONE  CLOUDY    34  30  86 CALM      30.36S
ENNIS          CLOUDY    45  32  61 CALM      30.30S
THREE FORKS      N/A     42  36  79 CALM      30.18S
TWIN BRIDGES     N/A     44  32  63 CALM      30.20S
$$

MTZ009-010-012-014-046-048-049-054-221200-
EAST SLOPES AND CENTRAL MONTANA

CITY           SKY/WX    TMP DP  RH WIND       PRES   REMARKS
CUT BANK       CLEAR     46  36  68 W6        30.16S
GREAT FALLS    PTCLDY    51  34  52 S7        30.15S
MALMSTROM AFB  CLEAR     52  37  56 SW3       30.15S
HELENA         CLEAR     54  36  50 CALM      30.19R
BOWMANS CRNR     N/A     51  35  55 W6        30.17R
CHOTEAU          N/A     50  37  62 SW6       30.18S
CONRAD           N/A     46  37  70 N2        30.16S
$$

MTZ011-013-016-021-045-047-050-051-221200-
NORTH CENTRAL MONTANA

CITY           SKY/WX    TMP DP  RH WIND       PRES   REMARKS
HAVRE          CLEAR     51  37  58 NE6       30.13R
LEWISTOWN      CLOUDY    53  34  48 E3        30.19S
N BAR RANCH      N/A     50  32  50 W5        30.24S
CHINOOK          N/A     52  37  58 E8        30.14S
JUDITH GAP       N/A     54  32  43 SW10      30.22S
$$

MTZ017>020-022>027-061-062-221200-
NORTHEAST MONTANA

CITY           SKY/WX    TMP DP  RH WIND       PRES   REMARKS
JORDAN           N/A     44  29  55 W3        30.18S
SIDNEY         PTCLDY    43  35  73 CALM      30.19S
WOLF POINT     MOCLDY    44  32  62 CALM      30.19S
MALTA          PTCLDY    48  37  66 E5        30.16S
PLENTYWOOD       N/A     48  34  57 CALM      30.19R
POPLAR           N/A     43  36  75 NW3       30.20R
SCOBEY           N/A     39  27  62 CALM      30.17R
$$

MTZ028>42-056>058-221200-
SOUTHCENTRAL AND SOUTHEAST MONTANA

CITY           SKY/WX    TMP DP  RH WIND       PRES   REMARKS
BAKER          CLEAR     48  35  60 E3        30.21S
BILLINGS       CLOUDY    57  35  43 SW5       30.18R
LIVINGSTON     CLEAR     45  34  65 CALM      30.23F
MILES CITY     PTCLDY    54  33  45 N7        30.18S
BIG TIMBER     CLOUDY    52  34  50 W8        30.25S
EKALAKA          N/A     51  35  54 SE7       30.18S
LAUREL           N/A     51  32  48 SW5       30.16F
$$

REGIONAL REPORTS...DAKOTAS

CITY           SKY/WX    TMP DP  RH WIND       PRES   REMARKS
WILLISTON      CLOUDY    43  37  79 S3        30.18S
MINOT          CLEAR     50  41  71 SW9       30.13R
DICKINSON      PTCLDY    44  38  79 W5        30.19R
BEACH            N/A     45  37  76 CALM      30.24S
CROSBY           N/A     43  37  81 SW5       30.17S
TIOGA            N/A     41  39  93 W5        30.18S
WATFORD CITY     N/A     41  36  81 CALM      30.18S
BISMARCK       CLEAR     48  44  86 SW5       30.17R
GRAND FORKS    PTCLDY    50  46  86 W7        30.00R
FARGO          CLEAR     49  47  93 W6        30.03R
BUFFALO SD       N/A     55  39  54 W3        30.16R
RAPID CITY     CLEAR     48  41  76 NW6       30.22S
$$

REGIONAL REPORTS...WYOMING/IDAHO/WASHINGTON

CITY           SKY/WX    TMP DP  RH WIND       PRES   REMARKS
GILLETTE       CLEAR     58  36  43 S16       30.22S
SHERIDAN       CLEAR     44  38  79 CALM      30.18F
BUFFALO WY     CLEAR     58  33  39 S8        30.25S
CODY           CLEAR     54  35  48 S6        30.26S
YELLOWSTONE LA   N/A     35  33  92 CALM      30.44R
IDAHO FALLS    CLOUDY    44  40  85 CALM      30.22S
SALMON         CLEAR     46  38  73 CALM      30.21R
BOISE          CLEAR     64  39  39 SE9       30.07S
SPOKANE        CLEAR     62  47  57 NE3       30.06S
$$

REGIONAL REPORTS...ALBERTA

CITY           SKY/WX    TMP DP  RH WIND       PRES   REMARKS
EDMONTON       CLOUDY    59  55  88 CALM      30.07S
CALGARY        PTCLDY    50  43  76 SW3       30.15R
LETHBRIDGE     CLEAR     46  39  76 W7        30.11F
MEDICINE HAT   PTCLDY    54  43  66 CALM      30.10F
$$

REGIONAL REPORTS...SASKATCHEWAN

CITY           SKY/WX    TMP DP  RH WIND       PRES   REMARKS
SWIFT CURRENT  CLOUDY    55  34  44 S10       30.14F
REGINA         CLEAR     41  34  75 CALM      30.15S
SASKATOON      CLOUDY    52  43  71 S3        30.13R
$$




USA.gov is the U.S. government's official web portal to all federal, state and local government web resources and services.